Location: Cherryland
(37.6794°N, 122.1033°W)
Time: 07:15:51
(UTC+00:00)

Daily predictions for brighter satellites

Satellite Brightness Start Highest point End
(mag) Time Altitude Azimuth Time Altitude Azimuth Time Altitude Azimuth
Cosmos 2322 Rocket 4.4 12:03:51 18° NE 12:05:15 19° NE 12:09:13 10° E
OAO 2 Rocket 4.4 12:31:15 43° ESE 12:31:15 43° ESE 12:34:59 10° E
ATLAS 2AS CENTAUR R/B 4.0 12:24:38 10° S 12:31:03 37° ESE 12:37:19 10° NE
SL-16 R/B 2.6 12:36:15 58° NE 12:36:36 59° ENE 12:42:10 10° SE
USA 59 Rocket 2.0 12:50:54 24° S 12:50:54 24° S 12:53:35 10° S
Cosmos 1092 Rocket 4.2 12:43:34 10° S 12:49:45 68° E 12:55:56 10° NNE
Cosmos-2242 4.5 12:48:41 28° NE 12:49:55 34° ENE 12:53:42 10° SE
NOSS 3-1 (A) 4.5 12:46:29 31° NNW 12:50:27 62° NE 12:59:29 10° SE
COSMOS 2455 4.2 13:01:27 24° SSW 13:01:27 24° SSW 13:04:10 10° S
Cosmos 2195 Rocket 4.3 12:55:51 10° SSW 13:02:05 70° W 13:08:24 10° N
Cosmos 2278 3.6 13:01:19 52° NNW 13:02:47 84° ENE 13:08:25 10° SSE
Centaur AC-119 4.4 13:03:37 17° S 13:03:37 17° S 13:06:15 10° SE
ISS -1.7 13:08:36 23° SSE 13:09:25 26° SE 13:12:18 10° ENE
CZ-4 R/B 4.0 13:05:02 10° NNE 13:09:38 66° ESE 13:14:12 10° S
Cosmos 405 Rocket 4.1 13:07:34 10° S 13:09:12 26° SSE 13:09:12 26° SSE
Cosmos 1626 Rocket 4.0 13:14:17 10° S 13:18:37 60° E 13:22:57 10° NNE
SL-24 R/B 4.1 13:14:53 10° NNE 13:19:45 87° ESE 13:23:57 10° SSW
Cosmos 2360 Rocket 2.3 13:19:26 21° NNW 13:23:13 71° ENE 13:28:47 10° SSE
FengYun 1-2 T 4.5 13:25:12 10° N 13:30:34 46° WNW 13:35:54 10° SW
Cosmos 2151 4.2 13:29:54 10° SSE 13:33:43 40° E 13:37:34 10° NNE
Cosmos 1833 4.1 13:30:13 10° SW 13:35:46 62° WNW 13:41:26 10° NNE
OAO 3 Rocket 3.4 13:35:14 33° WSW 13:37:07 61° S 13:41:44 10° E
Cosmos 2219 Rocket 2.8 13:32:10 10° NNW 13:37:43 54° ENE 13:43:11 10° SE
Helios 1A Rocket 3.0 13:37:01 10° SSE 13:40:16 57° ENE 13:42:54 15° N
NOSS 8 (A) 4.5 13:39:38 43° N 13:40:28 68° ENE 13:44:05 10° SE
Cosmos 2333 Rocket 2.3 13:38:26 27° NW 13:41:19 53° WSW 13:46:50 10° S
NOAA 12 4.1 13:36:58 10° N 13:42:08 57° WNW 13:47:14 10° SSW
Cosmos 1484 Rocket 3.2 13:40:09 10° NNE 13:43:27 51° E 13:46:42 10° S
ATLAS 3B R/B 4.4 13:42:50 10° NNW 13:49:32 30° NE 13:55:55 10° ESE
Cosmos 2322 Rocket 2.2 13:45:42 19° NNW 13:49:41 60° WSW 13:55:13 10° S
BREEZE-M DEB (TANK) 2.4 13:55:48 42° W 13:56:19 53° NNW 13:58:41 10° NE
Cosmos 1812 Rocket 4.2 13:53:47 10° N 13:58:03 56° E 14:02:20 10° SSE
Cosmos 1602 Rocket 3.6 13:53:53 10° S 13:58:18 88° ESE 14:02:46 10° N
IRS-1D 4.1 13:55:10 10° N 13:59:42 34° WNW 14:04:18 10° SW
Cosmos 2221 2.9 13:56:03 10° N 14:00:09 61° E 14:04:14 10° SSE
Cosmos 1437 Rocket 3.7 13:57:49 10° N 14:01:08 42° ENE 14:04:27 10° SSE
SL-4 R/B 1.3 14:07:42 23° NW 14:09:34 87° NE 14:12:43 10° SE
Okean 1-7 Rocket 3.7 14:05:52 10° S 14:10:21 79° E 14:14:49 10° N
OAO 2 Rocket 3.6 14:10:01 15° W 14:14:20 64° S 14:19:25 10° ESE
Cosmos 2058 Rocket 4.3 14:12:46 17° WNW 14:14:25 21° W 14:17:41 10° SW
SL-08 ROCKET BODY 4.5 14:09:17 10° SSW 14:14:54 49° W 14:20:33 10° N
Cosmos 2333 4.4 14:09:34 10° NNW 14:15:06 52° WSW 14:20:33 10° S
Cosmos 2285 Rocket 4.2 14:10:18 10° NNW 14:16:30 53° WSW 14:22:41 10° S
IGS 5A 3.3 14:13:00 10° N 14:16:58 64° WNW 14:20:55 10° SSW
Cosmos 1743 3.0 14:14:27 10° SW 14:17:20 30° WNW 14:20:14 10° NNW
SL-16 R/B 3.7 14:18:09 14° WNW 14:20:06 17° W 14:23:36 10° SW
KORONAS-FOTON 3.7 14:17:34 10° N 14:20:56 70° E 14:24:16 10° SSE
Meteor 1-19 Rocket 4.5 14:15:19 10° N 14:21:14 83° E 14:27:14 10° S
Meteor 2-6 Rocket 4.5 14:15:47 10° NNW 14:21:32 52° W 14:27:11 10° SSW
ATLAS 2AS CENTAUR R/B 3.1 14:15:09 10° WSW 14:21:50 43° NW 14:28:22 10° NNE
ARIANE 5 R/B 3.8 14:17:19 10° NNE 14:22:22 47° E 14:27:21 10° S
Cosmos 192 4.3 14:19:23 10° NNW 14:24:15 67° WSW 14:29:04 10° S
COSMO-SKYMED 1 3.3 14:22:07 10° SSW 14:25:41 29° W 14:29:17 10° NW
CORIOLIS 4.4 14:22:23 10° NNE 14:27:48 79° ESE 14:33:12 10° S
CZ-3 R/B 4.4 14:21:40 10° W 14:27:48 13° WSW 14:31:59 10° SW
Cosmos 1825 Rocket 3.5 14:26:17 10° S 14:30:41 85° W 14:35:07 10° N
ATLAS CENTAUR Rocket 4.4 14:26:25 10° WSW 14:31:59 50° S 15:00:55 10° ESE
Cosmos 2315 Rocket 4.4 14:25:51 10° N 14:32:10 71° E 14:38:24 10° SSE
Cosmos 1076 Rocket 4.1 14:28:37 10° S 14:32:45 60° E 14:36:56 10° NNE
COSMOS 2428 3.5 14:27:16 10° NNW 14:32:50 53° ENE 14:38:23 10° SE
ARIANE 6 FM1 Upper Stage 2.5 14:30:53 10° SW 14:34:55 65° NW 14:38:54 10° NNE
Cosmos 1707 2.2 14:35:53 10° NNW 14:38:57 55° W 14:41:59 10° S
Cosmos 773 Rocket 3.9 14:34:03 10° SSW 14:39:07 70° WNW 14:44:16 10° NNE
S3M 3.9 14:33:21 10° N 14:39:30 77° W 14:45:34 10° S
CBERS-1 4.2 14:36:15 10° N 14:41:08 48° WNW 14:45:59 10° SW
ATLAS CENTAUR R/B 3.2 14:39:48 10° S 14:42:42 29° ESE 14:45:39 10° NE
Cosmos 1655 Rocket 4.2 14:36:33 10° S 14:42:54 83° E 14:49:13 10° N
Cosmos 1570 Rocket 4.4 14:39:42 10° SW 14:44:44 44° WNW 14:49:50 10° N
ISS -2.9 14:43:04 10° W 14:46:06 31° NNW 14:49:10 10° NNE
CZ-2D R/B 2.6 14:43:15 10° N 14:46:25 75° WNW 14:49:33 10° SSW
USA 276 3.5 14:44:50 10° SSW 14:47:22 34° SE 14:49:41 10° ENE
SAR-Lupe-4 3.5 14:45:35 10° N 14:49:09 84° WNW 14:52:41 10° SSW
AQUARIUS 4.3 14:45:39 10° NNE 14:50:05 78° ESE 14:54:29 10° S
